Theta_e
295 295 296 295 296 297 299 300 302 306 309 314 317 317 318 319 320 320 321 322 323 323 323 324 324 325 324 324 323 322 323 323 323 322 323 321 319 318 318 318 317 317 316 317 316 314 314 314 314 314 313 312 310 309 308 304 304 303 300 297 297 293
295 296 296 296 297 296 297 298 298 300 303 305 307 308 308 309 313 315 317 319 320 321 320 320 323 323 322 322 321 320 321 322 321 321 319 320 317 319 319 318 316 314 314 313 313 312 311 311 312 313 312 311 310 307 304 302 302 301 299 295 294 293
295 295 295 296 296 296 297 298 298 298 299 299 301 304 305 306 308 309 312 312 314 314 316 317 317 318 319 316 318 318 319 319 316 319 320 316 318 318 317 317 317 316 314 312 310 311 311 312 311 311 311 309 307 305 304 300 300 299 296 294 291 289
294 295 293 293 295 296 297 296 298 299 298 299 299 299 301 303 303 305 307 307 311 312 313 313 311 315 315 315 315 315 316 316 316 316 313 315 316 315 316 316 317 316 315 313 312 311 311 311 311 309 308 306 303 301 300 298 298 296 294 292 291 288
293 293 294 293 293 293 293 293 295 296 295 296 297 300 302 302 303 303 304 306 307 308 308 307 308 308 308 311 310 311 312 312 311 312 315 314 313 313 315 316 315 314 314 313 312 312 310 310 308 307 307 305 303 300 299 297 297 295 292 291 290 288
291 292 293 292 291 292 294 295 295 295 294 295 295 296 297 298 298 300 302 301 301 301 301 303 300 302 302 306 304 306 305 307 308 309 313 313 313 314 313 314 315 313 313 312 310 310 309 308 307 305 304 304 302 300 299 296 295 294 292 291 289 287
292 294 294 294 293 292 292 293 294 294 294 294 295 295 294 295 297 299 297 295 297 299 300 302 303 304 302 302 300 302 302 303 305 307 312 311 311 312 311 310 311 312 311 311 310 309 308 307 306 304 303 302 300 300 298 295 294 293 291 291 289 288
293 291 291 292 293 293 294 294 294 294 292 295 293 295 293 293 293 295 295 294 297 297 300 302 303 304 303 302 301 300 302 305 306 308 307 310 312 309 309 311 309 309 310 309 309 309 308 307 305 304 302 300 297 297 296 294 293 292 291 289 288 287
292 293 292 293 292 291 293 294 295 293 293 294 293 294 295 293 293 294 296 294 295 296 296 298 299 299 300 300 300 299 300 302 302 304 306 304 308 308 307 306 307 306 309 309 308 308 307 305 303 302 300 297 295 295 293 292 291 290 289 288 287 287
291 290 292 291 293 292 293 293 294 295 294 295 293 291 292 293 292 291 291 292 292 293 293 295 298 299 299 298 299 299 299 299 300 303 302 300 306 306 307 308 308 307 307 308 307 307 305 303 301 299 297 295 293 292 292 291 290 289 288 287 287 286
292 292 291 292 290 292 291 292 292 291 291 291 292 290 293 290 292 291 292 291 292 294 295 296 295 293 292 294 296 296 297 297 296 296 296 296 298 302 302 303 303 301 301 299 301 300 299 300 300 298 295 293 292 292 290 290 289 288 287 286 285 284
293 292 292 290 292 292 292 292 293 294 295 294 292 293 291 291 292 293 294 295 295 294 294 295 296 297 294 294 294 293 293 293 293 294 293 294 295 295 295 296 296 295 297 298 297 296 296 297 297 292 293 293 293 292 291 289 288 287 287 286 285 284
294 291 292 293 293 293 294 295 295 293 293 293 293 294 292 293 294 295 295 297 295 294 294 295 295 294 294 293 290 290 290 291 290 291 292 292 292 292 291 291 293 292 293 294 294 294 294 296 296 292 294 294 293 292 290 288 287 287 286 285 285 284
294 294 295 294 293 293 293 294 293 293 294 294 294 294 293 295 296 297 296 296 295 294 294 293 292 292 292 291 291 290 289 288 289 289 289 289 290 289 289 291 292 292 291 292 292 293 293 295 293 294 294 294 293 291 289 288 287 286 286 285 284 284
295 296 296 294 294 294 294 294 293 294 295 294 293 294 296 297 296 296 296 294 293 293 292 291 291 291 290 290 290 289 288 288 288 288 289 289 288 288 290 291 291 291 290 291 292 292 292 292 293 293 293 293 293 292 290 288 287 286 285 285 284 283
295 296 296 296 296 296 295 294 295 295 293 292 291 294 296 297 296 296 295 293 293 292 291 290 290 290 289 288 288 288 288 288 289 288 288 288 288 289 289 289 290 290 290 291 292 292 290 291 290 293 293 292 292 292 290 287 286 285 285 284 284 283
296 296 295 294 294 291 291 291 292 289 290 291 292 294 296 296 295 295 293 292 291 290 290 290 290 289 288 288 288 288 288 288 287 288 288 288 288 289 290 289 289 290 289 289 289 290 289 290 291 292 293 292 292 292 289 286 286 285 284 283 283 283
295 296 296 295 291 291 293 294 291 291 290 289 292 292 293 294 294 294 292 291 290 290 290 289 289 288 288 287 287 288 288 288 288 288 287 287 287 288 288 288 289 288 288 288 288 289 289 287 291 292 292 292 292 291 287 286 285 284 283 282 282 282
295 296 293 291 293 293 292 289 290 290 289 289 289 291 292 292 292 292 291 291 290 290 289 289 289 288 288 287 287 287 287 287 287 287 287 287 287 287 287 288 287 288 288 287 288 289 289 287 289 291 291 292 292 290 286 285 285 284 283 282 282 282
291 291 291 290 289 289 288 288 290 289 289 289 289 290 290 291 291 291 290 290 290 289 289 289 289 288 287 287 287 287 287 287 287 287 287 288 287 287 287 287 287 287 287 287 287 288 287 286 287 290 291 291 291 289 286 285 284 283 282 281 281 280
289 288 287 289 291 288 287 288 289 289 289 288 289 290 290 290 290 290 290 290 290 289 289 289 289 288 287 287 287 287 287 287 286 286 286 287 287 286 286 286 286 286 286 286 286 286 287 286 286 289 290 291 291 288 285 285 284 282 282 281 280 279
289 288 289 291 292 288 287 288 289 288 288 287 288 289 290 290 290 290 290 290 289 289 289 289 288 287 287 287 286 286 286 286 286 286 286 286 286 286 286 286 286 286 285 285 286 286 286 286 286 287 290 290 291 289 285 285 283 282 281 281 280 279
288 288 287 286 286 284 285 287 287 286 286 287 288 289 289 289 290 290 290 290 289 289 288 288 288 287 287 287 286 286 286 286 286 286 286 286 286 286 285 285 285 285 285 285 285 285 286 286 286 286 289 290 290 290 286 284 284 283 282 281 280 279
284 284 284 282 283 284 285 286 287 284 285 286 287 286 286 289 289 289 289 289 289 288 287 287 287 287 286 286 286 286 285 285 286 286 286 286 285 285 285 285 285 285 285 285 285 285 285 285 286 286 287 289 290 290 288 284 284 284 282 281 280 279
284 283 283 282 282 283 283 285 284 282 282 285 282 282 284 287 289 289 289 289 288 287 287 287 286 286 286 286 286 286 285 285 285 285 285 285 285 285 284 284 284 284 284 284 284 285 285 285 285 285 286 287 289 290 288 286 284 285 282 281 280 279
283 283 282 281 280 280 281 285 284 282 283 281 282 281 283 287 289 289 288 287 287 286 286 286 286 286 286 286 286 286 285 285 285 285 285 285 285 284 284 283 283 283 283 283 283 283 284 284 285 285 285 286 288 289 289 288 287 286 281 281 280 279
284 283 282 280 280 280 279 281 284 282 282 282 281 282 284 286 287 287 286 286 286 286 286 286 286 286 286 286 286 285 285 285 285 284 284 284 284 284 283 282 282 282 283 282 282 282 282 283 283 284 284 285 286 288 289 288 287 287 285 280 278 278
285 283 282 281 280 279 279 280 282 283 279 280 279 281 283 285 286 285 285 285 285 285 285 285 285 285 285 285 286 285 285 285 284 284 283 284 283 283 283 282 282 282 282 282 282 282 282 282 282 282 282 284 284 285 287 287 287 285 285 282 279 281
284 282 281 280 279 279 279 279 279 279 279 279 280 281 282 282 282 283 283 283 283 284 284 284 284 284 284 285 285 284 284 284 284 283 283 283 283 282 282 282 281 281 281 281 281 281 281 281 281 281 281 282 282 282 282 283 284 284 284 281 279 281
282 281 280 279 278 278 279 279 279 278 278 279 280 281 281 281 281 281 281 281 281 281 282 282 280 282 283 283 283 283 282 283 284 283 282 282 282 281 281 281 281 280 280 280 280 279 278 279 279 280 281 280 280 279 279 278 278 279 278 278 277 277
282 280 279 277 278 278 278 277 276 275 277 279 280 281 280 279 279 279 278 278 278 278 277 278 279 279 279 278 277 276 277 279 277 278 277 277 277 278 278 276 275 275 273 275 274 274 273 273 275 276 281 279 282 280 278 278 279 278 277 279 281 276
280 278 277 277 277 276 275 273 271 271 273 275 279 280 279 278 278 277 276 276 277 276 276 275 275 275 276 275 275 275 275 279 280 278 276 274 280 282 282 281 274 274 275 274 275 276 277 276 276 282 284 284 284 284 284 283 283 283 280 282 284 279
279 277 276 276 275 273 272 271 270 270 271 273 277 279 279 278 278 277 276 276 275 276 276 275 275 275 275 274 275 275 275 273 277 282 283 281 281 282 283 283 284 283 281 277 273 275 283 283 283 284 285 285 285 285 285 285 285 285 284 284 281 276
277 277 275 274 272 271 270 269 268 268 268 270 273 277 278 278 278 277 276 275 275 276 274 274 274 274 274 273 272 274 273 273 273 273 280 282 281 282 283 283 282 283 283 283 280 275 272 280 284 285 285 285 285 285 285 285 285 285 285 285 284 276
277 276 274 273 272 271 270 269 267 267 267 269 272 275 276 275 276 275 274 274 274 274 274 274 274 273 274 273 273 273 272 272 272 273 271 274 280 281 281 281 282 282 282 282 282 283 282 281 283 285 285 285 285 285 285 285 286 286 286 285 281 276
274 273 272 271 270 269 269 267 265 266 266 268 272 274 274 274 274 274 274 274 274 274 273 273 273 273 272 272 272 272 272 271 271 270 271 270 271 272 275 279 281 281 281 282 282 282 282 282 282 283 284 285 285 285 285 285 283 285 286 284 279 277
272 271 270 269 268 268 267 266 265 264 265 268 272 273 273 273 273 273 272 272 273 273 273 272 272 272 272 272 272 271 271 270 269 270 270 269 270 270 269 269 272 278 282 278 279 281 281 281 282 282 282 283 284 284 285 284 279 278 279 281 281 279
270 269 268 267 267 267 266 265 265 265 265 267 271 273 272 272 273 273 272 272 272 272 271 271 271 271 271 271 270 270 269 270 270 270 269 270 269 269 269 269 269 270 275 280 281 282 282 281 282 282 282 282 282 283 283 277 276 275 276 277 278 279
Wind_Speed
5 6 6 5 5 5 6 6 5 6 7 9 12 14 14 13 11 10 10 12 11 11 13 14 13 13 13 12 11 9 11 12 11 10 10 7 8 8 9 9 8 9 8 8 8 8 8 8 9 9 9 9 8 8 8 6 7 7 7 6 7 6
6 7 7 6 6 5 5 5 3 6 6 5 6 6 4 5 8 9 10 11 10 10 8 9 11 10 10 9 10 10 11 11 10 9 8 10 8 9 10 9 10 9 9 7 8 8 8 9 9 10 10 10 10 10 8 8 9 9 9 7 6 7
5 4 3 2 0 0 1 2 4 4 2 5 5 7 7 7 8 7 8 6 7 7 8 8 7 8 7 6 8 9 9 8 8 8 8 6 9 9 9 10 10 10 10 9 8 9 9 10 10 9 9 10 10 9 10 10 9 9 6 7 7 5
2 1 1 2 1 1 1 0 0 2 4 5 5 5 6 7 6 6 6 5 6 7 7 7 6 7 6 7 7 8 8 7 8 7 6 8 8 9 10 10 10 9 10 10 10 9 9 10 11 11 10 11 10 9 7 8 10 9 9 8 9 7
4 4 5 4 4 4 3 3 4 4 4 4 4 5 7 6 6 5 5 6 6 7 6 6 6 6 6 8 7 8 8 7 7 7 9 9 8 7 9 10 9 10 10 9 10 10 10 11 10 10 11 11 12 12 10 10 11 11 11 10 10 9
2 2 3 4 4 5 6 6 5 4 4 4 3 4 3 3 2 1 1 2 3 3 4 5 3 4 5 7 6 7 6 7 6 6 7 7 7 8 7 8 9 9 10 10 10 10 10 11 10 10 11 13 13 12 12 11 11 10 11 12 11 10
4 5 5 5 5 4 4 4 4 3 4 3 4 4 3 3 2 2 1 3 3 2 3 2 1 2 2 4 4 5 5 5 6 6 7 6 7 7 7 7 7 10 10 10 11 11 11 11 11 11 11 11 11 13 12 12 11 11 11 11 12 11
5 5 5 5 5 5 5 4 4 4 4 6 5 5 4 3 3 5 5 5 5 4 3 2 1 2 3 4 4 4 4 5 5 6 5 7 9 7 7 9 8 9 9 9 10 11 12 11 11 12 13 10 9 10 10 11 11 10 10 10 10 11
6 7 6 6 5 5 6 6 6 6 5 6 5 5 5 5 5 5 6 5 5 4 4 4 4 3 3 4 4 4 4 4 4 5 5 5 6 8 8 6 8 8 9 10 11 12 12 11 11 10 9 8 8 9 10 9 8 8 8 8 10 11
5 5 6 5 6 6 6 6 7 7 6 6 5 4 4 3 4 4 4 4 4 4 3 2 1 1 2 1 1 3 4 4 5 6 5 5 7 7 8 9 11 10 10 11 11 11 11 11 11 10 9 9 9 10 10 10 10 8 8 8 8 9
5 5 5 7 5 6 6 6 6 5 5 5 5 5 5 4 5 4 4 4 4 3 3 3 2 2 1 1 1 2 2 3 2 2 2 3 4 4 5 5 5 5 6 5 6 5 6 8 9 9 9 10 9 8 8 8 9 10 10 9 7 5
5 5 5 5 7 6 6 6 7 7 8 7 6 5 5 5 5 5 4 4 4 3 3 3 3 2 1 0 1 1 0 0 0 1 3 3 2 2 1 2 2 4 5 6 5 5 5 5 5 9 14 13 12 12 10 9 10 10 9 9 9 7
7 5 5 7 7 8 8 8 7 6 6 6 6 6 6 6 6 5 4 4 3 3 3 3 3 4 4 3 3 2 2 2 2 2 2 1 2 2 2 3 3 3 3 4 4 5 5 6 6 11 13 13 12 10 10 11 10 9 9 10 11 11
7 7 8 8 8 8 7 8 7 7 9 7 8 7 6 6 6 6 6 5 5 5 5 5 5 5 5 4 4 3 3 3 3 3 2 2 3 2 3 3 4 4 4 4 4 5 6 6 8 12 14 15 15 12 10 8 9 10 10 10 10 9
9 9 9 7 8 8 10 8 7 10 9 9 8 7 7 7 7 6 6 6 6 6 6 5 5 5 4 4 4 4 4 4 3 3 3 4 3 3 3 4 4 4 4 5 6 6 5 5 7 10 12 12 13 14 11 9 9 10 10 11 11 11
6 8 10 10 10 11 8 10 11 9 7 7 7 9 8 8 7 7 7 6 6 6 6 5 5 5 5 3 4 4 4 4 5 4 3 3 3 4 3 3 4 4 5 6 7 6 5 5 7 11 12 12 12 13 10 6 8 8 9 10 10 9
9 9 7 7 8 5 5 6 6 4 5 7 8 7 8 8 8 7 7 7 6 5 5 6 5 5 5 4 4 5 5 5 4 4 4 4 4 5 6 6 5 6 5 5 4 4 5 5 8 11 13 12 12 11 7 5 6 6 7 7 7 9
11 11 11 7 4 6 7 8 6 6 5 5 7 7 7 7 7 7 7 7 7 7 6 6 5 5 5 5 5 5 6 5 5 6 4 4 3 2 2 3 4 5 5 4 4 5 5 4 10 12 14 15 15 15 7 6 7 7 7 7 7 7
9 10 6 5 7 7 7 5 6 7 7 6 6 7 7 7 7 7 7 7 6 6 5 6 7 6 7 6 6 6 6 6 5 4 4 5 4 4 4 4 3 3 3 4 5 6 6 5 9 13 15 16 17 12 7 7 7 7 8 9 7 7
4 2 5 6 5 4 5 6 8 8 8 7 7 8 8 8 8 7 7 7 7 7 6 6 6 7 6 5 6 6 4 3 2 3 3 4 4 3 2 2 1 1 2 3 3 4 4 3 6 12 13 15 17 13 9 8 7 7 6 5 4 4
5 6 5 6 6 5 6 8 9 9 8 8 8 8 8 8 7 7 8 6 6 6 6 6 5 5 5 5 4 3 4 4 3 2 2 2 2 2 2 2 2 2 2 2 3 4 4 3 4 9 10 13 14 11 6 6 6 6 5 4 4 3
6 4 5 7 8 5 6 6 7 6 7 6 6 7 8 8 7 5 5 5 5 5 5 5 4 3 3 3 2 1 2 2 3 3 3 2 2 2 2 2 2 2 2 2 3 3 4 4 4 6 10 11 12 11 6 4 6 7 7 6 7 7
4 5 3 1 2 4 4 5 6 5 5 6 7 8 5 3 4 4 5 5 6 6 5 4 4 5 3 3 3 3 3 2 3 3 3 3 3 3 3 2 2 2 2 1 1 1 0 1 2 4 9 11 13 13 11 7 8 6 7 7 7 7
6 6 5 3 3 4 5 5 6 4 5 5 6 4 3 4 5 5 5 6 6 6 6 5 4 4 5 5 5 5 4 3 4 4 4 4 4 4 4 3 3 3 3 3 2 1 1 2 0 1 4 7 8 8 7 3 2 2 5 4 5 4
6 5 4 2 3 3 4 6 5 4 4 5 4 3 4 5 5 5 6 7 6 6 6 6 6 6 5 5 5 6 6 5 5 5 5 5 5 5 5 4 3 3 2 2 2 2 2 1 0 2 3 6 7 6 7 5 3 5 4 5 7 7
6 6 4 4 3 3 3 7 7 5 5 3 1 4 4 5 5 6 6 6 6 6 6 6 6 6 5 6 6 6 7 6 6 5 5 5 5 5 5 4 4 3 2 1 1 1 1 1 1 1 1 2 6 7 6 6 6 6 5 5 5 4
9 7 6 5 4 3 3 4 8 6 6 1 3 5 6 6 6 6 6 6 6 6 6 6 5 5 5 5 6 6 6 6 5 5 4 5 5 5 5 4 4 4 3 3 3 2 1 1 1 1 1 3 5 7 7 8 8 8 9 5 4 4
9 9 8 7 5 5 4 5 6 9 4 2 4 5 6 7 8 8 7 6 6 7 7 8 6 6 5 5 4 5 5 6 5 5 5 4 4 4 4 4 3 3 3 3 3 3 3 2 2 2 2 3 5 6 8 9 9 9 10 8 6 7
10 10 10 8 3 5 5 6 6 6 5 6 5 6 7 8 9 8 7 7 7 6 7 8 6 6 5 5 5 5 5 5 6 6 5 5 5 4 4 4 4 3 3 3 3 3 3 3 3 3 4 4 4 4 4 6 6 6 7 5 5 5
10 9 8 8 6 5 6 6 6 5 7 7 8 8 10 9 9 9 8 8 7 6 7 7 8 8 6 5 6 6 5 5 5 6 6 6 6 6 5 5 5 5 5 5 4 4 3 4 3 4 4 4 4 5 4 4 4 5 6 6 4 4
10 9 9 8 4 5 6 5 3 3 6 8 9 10 11 10 9 10 9 8 7 7 6 7 6 6 6 5 4 3 4 6 5 5 3 2 4 6 6 6 5 5 4 4 4 4 3 2 4 6 5 6 7 7 6 6 6 5 5 6 7 5
12 12 12 8 6 6 6 4 2 1 2 5 7 10 12 11 10 9 8 7 7 7 7 6 6 5 6 6 6 5 3 3 5 5 5 1 1 4 5 6 4 5 5 4 5 5 6 6 6 6 10 10 11 12 11 9 8 7 6 7 12 7
11 11 11 8 7 6 5 5 2 2 1 4 6 9 11 11 10 8 8 7 7 7 7 6 6 6 6 6 6 5 6 6 6 6 7 6 6 6 5 5 5 5 5 5 3 3 4 6 5 7 9 10 11 12 12 12 12 11 11 11 7 3
11 13 12 8 7 7 5 5 2 1 1 1 5 6 8 8 9 9 8 7 6 7 6 6 6 6 6 5 5 6 6 6 6 4 5 5 4 4 5 4 4 4 4 3 3 2 1 2 3 6 7 8 10 10 11 12 12 13 13 14 12 6
9 8 7 7 7 7 5 6 2 1 1 2 5 7 8 6 8 9 7 7 7 7 7 7 7 6 6 6 6 5 5 6 6 7 3 3 5 4 3 2 2 1 1 0 1 1 1 2 1 2 4 6 8 8 9 10 12 12 13 13 9 7
8 7 6 6 6 6 5 5 3 3 2 1 6 8 9 8 8 8 8 7 8 8 7 7 6 7 6 5 5 6 6 5 6 5 6 5 3 4 4 5 5 3 2 3 3 3 3 4 4 4 4 4 5 7 8 8 6 11 13 11 7 7
8 6 6 6 5 6 6 5 4 4 3 1 6 8 9 9 9 8 9 11 8 7 7 7 6 7 6 6 6 6 5 6 4 4 5 5 5 4 3 2 5 6 6 2 3 4 5 4 5 5 5 5 5 6 7 8 3 4 5 7 6 6
8 7 6 5 5 6 7 5 4 4 3 3 5 8 8 8 8 8 7 7 8 7 7 6 6 6 6 7 6 6 5 6 6 6 5 4 4 4 4 4 3 2 5 6 5 5 5 4 5 5 5 5 5 6 6 3 4 4 5 6 6 6
Wind_Direction
226 219 219 227 227 221 212 212 200 203 208 208 205 207 208 208 205 206 213 210 213 214 214 212 211 212 214 215 214 206 210 212 211 208 211 200 189 185 183 184 183 184 184 185 187 183 187 183 182 180 177 172 173 178 175 165 168 167 173 175 166 167
218 212 212 218 220 221 226 215 205 214 220 212 221 233 226 212 209 206 210 214 214 218 218 221 219 215 212 211 205 209 213 212 207 206 199 197 180 189 185 182 182 179 179 180 178 182 181 181 183 181 178 175 178 173 173 177 173 175 176 174 173 163
220 226 225 218 208 131 132 156 191 210 196 216 220 212 217 215 218 208 218 208 214 215 215 215 212 217 213 208 206 210 214 211 203 204 198 173 191 181 182 185 184 183 180 176 179 183 185 185 183 182 178 179 177 179 177 169 172 171 170 160 166 166
205 123 62 61 89 65 183 323 320 224 200 199 192 197 213 213 219 213 220 214 214 215 219 218 211 209 206 207 207 210 208 205 201 196 182 191 190 180 183 186 185 182 181 181 184 189 191 191 186 183 179 176 172 170 166 169 168 168 168 169 171 174
202 185 173 173 180 198 214 237 233 235 242 246 231 205 218 201 206 204 201 206 209 217 214 205 208 200 201 203 207 209 204 203 198 189 189 191 185 188 182 184 181 181 181 186 189 190 192 193 192 188 183 180 175 172 175 176 175 172 171 176 178 175
204 163 204 209 209 210 213 216 220 226 234 246 263 262 279 294 281 270 205 182 170 162 152 165 156 158 174 190 200 200 204 198 195 187 190 186 178 185 190 182 182 180 182 185 190 194 193 194 194 191 192 184 178 177 178 176 180 178 177 178 174 170
197 211 210 213 224 233 233 232 239 243 250 244 232 241 244 240 241 173 145 137 149 134 137 144 127 159 182 187 185 189 187 183 180 182 185 173 184 187 177 187 184 182 181 187 190 192 195 196 192 192 194 191 186 181 175 176 179 182 181 179 174 170
218 226 226 222 216 208 211 220 222 223 220 222 203 197 193 181 159 172 164 169 168 177 163 160 163 210 221 222 225 212 197 187 181 180 184 180 183 182 187 181 184 185 184 183 191 197 198 195 194 197 198 191 182 178 175 176 179 180 180 177 171 169
234 225 223 216 207 202 200 198 206 210 210 216 211 197 184 179 158 170 168 171 174 173 186 191 206 201 219 225 228 229 220 207 200 178 184 190 187 182 184 191 182 189 187 194 196 198 196 195 193 193 188 180 179 178 171 167 166 172 180 183 175 173
235 229 226 216 213 206 204 201 198 198 195 202 206 201 189 175 141 136 142 147 161 167 169 172 186 225 253 264 249 229 216 203 200 205 197 184 196 200 202 197 200 203 197 194 193 197 192 188 186 182 179 176 178 174 170 169 167 168 176 181 182 178
229 225 219 216 204 204 207 205 208 206 206 199 194 185 190 172 148 149 140 131 142 161 156 140 123 101 86 119 161 188 210 218 225 211 180 194 202 200 199 201 203 191 202 203 198 194 187 188 192 189 179 164 165 165 165 166 167 170 173 172 170 178
227 226 217 213 206 206 204 205 204 201 197 200 194 183 190 150 164 161 164 171 178 167 158 174 178 164 132 112 163 244 303 345 339 170 192 207 213 217 197 196 194 193 203 198 192 178 174 186 182 180 178 179 173 172 171 170 171 170 169 167 165 168
219 211 205 214 209 208 202 205 202 198 200 197 189 187 180 162 159 166 174 199 189 194 197 201 197 215 228 206 170 134 139 141 130 133 132 122 122 148 146 145 162 186 181 183 184 180 181 184 188 185 184 183 178 171 172 171 165 162 168 174 174 174
213 201 208 214 214 208 205 205 199 190 206 193 193 185 165 163 168 176 185 186 187 194 193 191 187 189 201 191 190 172 155 129 126 127 125 123 135 134 127 156 179 180 179 175 182 189 193 195 190 185 185 183 178 172 163 158 162 172 175 176 177 175
205 202 213 212 210 207 213 193 177 204 200 189 189 163 172 177 177 176 182 183 182 190 185 181 181 185 184 193 181 163 149 152 144 142 149 175 170 131 158 186 169 185 178 176 185 195 197 202 181 183 186 184 179 175 168 173 173 172 179 180 179 174
215 215 211 208 209 207 197 183 193 202 186 174 160 172 179 178 184 182 186 180 189 187 183 178 176 179 181 163 153 152 154 163 180 172 158 143 148 173 176 174 187 180 183 189 191 193 184 185 175 176 178 180 182 179 173 167 171 176 180 183 181 178
211 216 223 234 222 203 168 200 198 149 149 158 165 173 174 183 180 188 180 185 185 181 183 177 175 170 160 163 159 158 166 170 160 164 172 171 180 182 189 187 189 196 192 194 185 176 182 186 172 172 172 171 169 170 158 155 164 177 183 186 185 184
205 206 215 214 170 182 186 187 165 152 159 154 160 166 173 176 186 188 177 185 183 184 183 174 169 163 164 165 165 165 171 174 177 174 165 156 161 166 158 181 176 187 191 184 172 170 186 180 174 171 170 170 171 167 159 167 174 183 187 188 189 186
200 207 191 168 185 177 188 148 148 137 139 152 160 162 168 173 188 194 187 183 176 179 178 173 169 171 171 172 171 178 178 175 175 168 159 160 173 174 186 193 188 175 172 175 182 183 186 185 185 177 174 173 171 163 167 173 181 190 190 195 188 188
213 187 175 170 165 167 142 154 146 141 145 158 160 164 173 182 192 185 184 185 175 173 174 177 174 171 173 172 181 184 182 167 151 165 172 170 171 181 178 144 124 115 153 173 189 191 180 194 198 186 182 177 176 173 173 179 182 189 190 186 177 170
161 149 135 139 161 183 166 156 150 147 162 167 169 169 176 190 185 180 183 180 171 168 166 169 170 168 167 179 185 172 166 169 159 117 115 94 103 109 112 122 130 125 136 156 161 161 172 170 199 199 192 184 181 175 173 174 178 177 178 161 157 148
105 104 138 172 193 168 159 152 148 156 157 165 156 173 191 193 186 175 161 155 159 159 154 153 155 150 158 160 134 124 116 105 104 119 120 100 104 104 99 111 129 151 151 139 152 164 163 161 176 193 194 190 189 176 161 160 169 185 176 170 175 178
127 146 152 152 110 129 135 133 132 148 153 156 169 197 188 155 148 156 157 152 149 146 146 141 152 156 146 139 139 120 106 107 115 112 105 96 81 82 68 63 53 54 44 35 23 38 260 175 182 206 199 196 195 181 173 184 194 184 174 178 179 190
99 92 68 50 102 123 131 128 133 139 144 155 186 192 155 155 146 145 144 147 142 139 139 141 128 122 129 124 130 128 110 91 95 97 100 91 90 85 76 68 60 57 50 38 42 37 19 20 13 162 228 221 215 202 179 175 198 149 165 169 192 196
103 96 96 50 63 99 125 121 127 135 138 159 206 177 156 145 137 132 135 133 136 139 138 135 132 130 130 128 124 122 117 116 110 107 107 109 105 102 98 89 85 82 73 55 47 37 25 21 348 195 207 223 217 206 195 167 152 141 159 183 201 206
111 100 67 46 40 61 108 131 134 139 136 164 139 113 123 127 128 124 122 123 124 123 120 122 121 123 126 129 126 124 129 126 123 118 124 126 127 128 121 114 112 105 97 93 92 63 45 31 32 334 236 216 214 213 187 153 163 154 173 183 211 205
122 106 73 47 44 50 72 119 128 126 123 131 120 123 122 122 118 113 110 112 112 109 109 102 105 110 114 120 124 123 124 123 124 116 119 120 121 127 124 128 128 130 135 138 163 166 147 116 115 96 149 175 194 196 164 166 167 171 163 184 204 189
108 106 100 68 51 67 72 78 114 119 133 100 108 114 116 115 111 106 105 104 104 108 108 101 98 100 108 109 113 123 133 136 135 130 132 125 127 128 135 136 141 143 151 174 178 184 173 157 135 125 128 160 186 202 202 186 179 173 179 182 188 192
123 120 110 99 65 81 86 93 90 115 130 124 125 118 113 110 109 110 110 112 114 114 115 119 121 122 120 121 124 129 136 140 139 138 140 147 143 143 141 143 151 161 169 188 184 169 174 181 178 174 182 182 185 196 204 205 203 187 172 163 169 171
130 127 120 115 108 100 101 99 108 123 128 132 129 126 119 119 125 127 130 130 130 131 133 131 137 135 136 143 143 139 138 147 149 148 156 157 160 151 159 164 170 181 183 189 181 174 178 194 204 209 193 189 186 194 192 200 201 201 192 182 171 156
121 119 112 118 109 114 102 104 103 115 133 138 135 131 126 128 130 130 131 135 132 138 139 138 143 142 138 133 114 118 145 150 145 141 149 181 152 157 160 173 179 183 186 168 173 172 204 223 232 236 195 191 188 184 188 200 209 202 196 188 162 125
126 127 130 132 135 127 121 110 94 55 104 140 140 135 132 135 133 132 136 140 137 139 137 138 139 136 129 124 124 110 54 49 126 141 134 176 187 151 151 146 170 188 175 171 210 180 187 206 225 201 189 197 197 201 201 205 203 198 189 185 180 162
135 130 121 135 134 129 128 120 118 110 90 145 151 143 139 140 136 135 138 138 141 143 138 135 132 134 129 131 125 113 111 81 41 58 92 108 102 106 110 115 129 147 162 167 208 253 233 238 224 199 194 196 201 202 206 206 207 206 197 188 164 170
144 144 138 141 140 136 131 113 80 48 19 89 139 133 133 137 136 137 141 136 134 129 125 125 127 124 118 112 107 116 119 118 101 46 31 61 86 95 106 108 112 109 127 139 143 132 352 331 271 226 211 206 208 207 207 208 207 208 199 197 179 189
135 126 127 129 135 128 121 106 74 353 22 104 133 129 123 123 124 127 128 130 128 126 124 122 121 122 125 129 127 121 119 123 129 122 87 16 23 58 61 72 68 75 59 337 355 250 221 251 296 254 230 215 214 213 211 209 212 213 213 199 198 204
118 112 108 113 109 107 96 82 15 351 338 67 123 123 124 124 124 126 133 136 134 127 124 124 128 127 124 122 119 124 119 124 127 125 127 100 56 25 7 18 18 358 319 342 336 325 314 317 306 301 275 245 220 213 211 210 217 223 220 207 207 210
102 96 98 107 99 87 79 61 357 332 334 67 117 115 113 115 116 115 112 116 120 124 125 124 121 120 119 115 114 113 107 109 100 107 104 111 113 97 71 358 352 13 35 33 27 19 6 351 332 320 306 290 253 236 227 230 218 228 244 236 228 225
99 101 91 82 84 80 72 42 349 342 351 51 101 101 103 105 108 109 110 110 111 108 108 108 110 108 109 110 108 106 107 106 104 99 104 101 100 93 80 41 24 351 350 24 31 25 9 358 346 342 328 313 296 275 251 223 226 226 234 236 246 243